RYR33PC EGGD-EIDW

Flight info

Callsign RYR33PC
Flight time 0h 41m
Altitude 24000
Route BCN P4 FELCA L9 NICXI M17 VATRY VATRY4L
Aircraft B738/M-SDE2E3FGHIRWXY/LB1

Departure

Time 2026-05-05 12:25
Airport Bristol Airport (EGGD)

Arrival

Time 2026-05-05 13:07
Airport Dublin Airport (EIDW)
Time Latitude Longitude Altitude Speed Heading
2026-05-05 12:01 51.38528 -2.71350 613 ft 0 kts 356°
2026-05-05 12:17 51.38511 -2.71348 614 ft 4 kts 356°
2026-05-05 12:17 51.38485 -2.71346 613 ft 3 kts 356°
2026-05-05 12:17 51.38464 -2.71342 616 ft 4 kts 329°
2026-05-05 12:17 51.38451 -2.71313 629 ft 4 kts 269°
2026-05-05 12:18 51.38452 -2.71288 615 ft 1 kts 266°
2026-05-05 12:20 51.38450 -2.71358 623 ft 10 kts 267°
2026-05-05 12:20 51.38445 -2.71475 613 ft 12 kts 266°
2026-05-05 12:21 51.38440 -2.71624 613 ft 15 kts 267°
2026-05-05 12:21 51.38433 -2.71786 605 ft 14 kts 266°
2026-05-05 12:21 51.38432 -2.71943 605 ft 14 kts 271°
2026-05-05 12:21 51.38429 -2.72109 604 ft 16 kts 266°
2026-05-05 12:22 51.38422 -2.72288 608 ft 16 kts 266°
2026-05-05 12:22 51.38416 -2.72457 615 ft 14 kts 266°
2026-05-05 12:22 51.38409 -2.72629 620 ft 17 kts 266°
2026-05-05 12:22 51.38401 -2.72844 605 ft 22 kts 266°
2026-05-05 12:23 51.38390 -2.73114 605 ft 23 kts 266°
2026-05-05 12:23 51.38376 -2.73271 611 ft 11 kts 246°
2026-05-05 12:23 51.38323 -2.73339 626 ft 9 kts 193°
2026-05-05 12:23 51.38274 -2.73336 619 ft 5 kts 169°
2026-05-05 12:24 51.38242 -2.73326 620 ft 6 kts 168°
2026-05-05 12:24 51.38214 -2.73282 627 ft 6 kts 91°
2026-05-05 12:24 51.38219 -2.73181 631 ft 17 kts 86°
2026-05-05 12:24 51.38243 -2.72569 629 ft 94 kts 86°
2026-05-05 12:25 51.38301 -2.71138 688 ft 154 kts 83°
2026-05-05 12:25 51.38368 -2.69336 1330 ft 169 kts 83°
2026-05-05 12:25 51.38422 -2.67421 2212 ft 176 kts 82°
2026-05-05 12:25 51.38483 -2.65379 2818 ft 197 kts 83°
2026-05-05 12:26 51.38560 -2.63027 3051 ft 225 kts 83°
2026-05-05 12:26 51.38642 -2.60428 3364 ft 246 kts 84°
2026-05-05 12:26 51.38735 -2.57619 3987 ft 258 kts 81°
2026-05-05 12:26 51.39321 -2.54957 4792 ft 257 kts 48°
2026-05-05 12:27 51.40767 -2.53375 5540 ft 255 kts 14°
2026-05-05 12:27 51.42492 -2.53412 5920 ft 248 kts 339°
2026-05-05 12:27 51.43868 -2.55085 5984 ft 258 kts 306°
2026-05-05 12:27 51.44777 -2.57585 5998 ft 260 kts 303°
2026-05-05 12:28 51.45393 -2.59217 5992 ft 257 kts 304°
2026-05-05 12:28 51.46323 -2.61651 5999 ft 256 kts 304°
2026-05-05 12:28 51.47277 -2.64103 6334 ft 263 kts 304°
2026-05-05 12:28 51.48254 -2.66570 7277 ft 262 kts 305°
2026-05-05 12:29 51.49244 -2.69036 8162 ft 265 kts 305°
2026-05-05 12:29 51.50262 -2.71548 8944 ft 273 kts 304°
2026-05-05 12:29 51.51327 -2.74159 9608 ft 284 kts 304°
2026-05-05 12:29 51.52419 -2.76831 10354 ft 290 kts 305°
2026-05-05 12:30 51.53573 -2.79651 10587 ft 316 kts 304°
2026-05-05 12:30 51.54812 -2.82672 11067 ft 330 kts 304°
2026-05-05 12:30 51.56081 -2.85771 11869 ft 333 kts 304°
2026-05-05 12:30 51.57362 -2.88901 12660 ft 338 kts 304°
2026-05-05 12:31 51.58655 -2.92062 13567 ft 339 kts 303°
2026-05-05 12:31 51.59959 -2.95256 14345 ft 344 kts 303°
2026-05-05 12:31 51.61282 -2.98498 15081 ft 350 kts 303°
2026-05-05 12:31 51.62622 -3.01789 15891 ft 353 kts 302°
2026-05-05 12:32 51.63967 -3.05095 16763 ft 354 kts 302°
2026-05-05 12:32 51.65323 -3.08417 17532 ft 359 kts 302°
2026-05-05 12:32 51.66712 -3.11817 18230 ft 366 kts 302°
2026-05-05 12:32 51.68121 -3.15275 18866 ft 371 kts 302°
2026-05-05 12:33 51.69540 -3.18759 19561 ft 374 kts 302°
2026-05-05 12:33 51.70973 -3.22284 20231 ft 378 kts 302°
2026-05-05 12:33 51.72418 -3.25847 20868 ft 382 kts 302°
2026-05-05 12:33 51.73822 -3.29522 21502 ft 386 kts 299°
2026-05-05 12:34 51.75156 -3.33300 22140 ft 390 kts 298°
2026-05-05 12:34 51.76499 -3.37123 22862 ft 392 kts 298°
2026-05-05 12:34 51.77855 -3.40945 23584 ft 393 kts 298°
2026-05-05 12:34 51.79224 -3.44766 24200 ft 394 kts 298°
2026-05-05 12:35 51.80596 -3.48585 24861 ft 393 kts 298°
2026-05-05 12:35 51.81931 -3.52433 25552 ft 391 kts 294°
2026-05-05 12:35 51.82897 -3.56503 26258 ft 386 kts 283°
2026-05-05 12:35 51.83462 -3.60727 26936 ft 384 kts 279°
2026-05-05 12:36 51.83965 -3.64913 27515 ft 385 kts 279°
2026-05-05 12:36 51.84498 -3.69144 28217 ft 383 kts 280°
2026-05-05 12:36 51.85050 -3.73361 28881 ft 383 kts 281°
2026-05-05 12:36 51.85609 -3.77570 29446 ft 384 kts 281°
2026-05-05 12:37 51.86170 -3.81799 30020 ft 385 kts 281°
2026-05-05 12:37 51.86730 -3.86081 29998 ft 392 kts 281°
2026-05-05 12:37 51.87782 -3.94709 30020 ft 391 kts 282°
2026-05-05 12:38 51.88840 -4.03351 30029 ft 393 kts 282°
2026-05-05 12:38 51.89938 -4.12033 30031 ft 394 kts 282°
2026-05-05 12:39 51.91035 -4.20727 30031 ft 393 kts 282°
2026-05-05 12:39 51.92116 -4.29394 30031 ft 392 kts 282°
2026-05-05 12:40 51.93186 -4.38033 30033 ft 391 kts 282°
2026-05-05 12:40 51.94243 -4.46647 30032 ft 390 kts 283°
2026-05-05 12:41 51.94773 -4.50983 29784 ft 390 kts 283°
2026-05-05 12:41 51.95288 -4.55196 29526 ft 384 kts 282°
2026-05-05 12:41 51.95807 -4.59472 29135 ft 380 kts 283°
2026-05-05 12:41 51.96316 -4.63667 28774 ft 376 kts 282°
2026-05-05 12:42 51.96816 -4.67808 28393 ft 373 kts 283°
2026-05-05 12:42 51.97304 -4.71859 28029 ft 370 kts 282°
2026-05-05 12:42 51.97795 -4.75939 27649 ft 367 kts 282°
2026-05-05 12:42 51.98280 -4.79985 27279 ft 364 kts 282°
2026-05-05 12:43 51.98759 -4.84006 26903 ft 362 kts 281°
2026-05-05 12:43 51.99235 -4.88002 26541 ft 359 kts 281°
2026-05-05 12:43 51.99706 -4.91970 26191 ft 357 kts 281°
2026-05-05 12:43 52.00173 -4.95907 25832 ft 354 kts 281°
2026-05-05 12:44 52.00633 -4.99813 25478 ft 352 kts 281°
2026-05-05 12:44 52.01410 -5.03542 25103 ft 351 kts 300°
2026-05-05 12:44 52.02961 -5.06578 24750 ft 351 kts 318°
2026-05-05 12:44 52.05039 -5.08689 24390 ft 351 kts 332°
2026-05-05 12:45 52.07234 -5.10423 24014 ft 351 kts 333°
2026-05-05 12:45 52.09431 -5.12122 23669 ft 349 kts 332°
2026-05-05 12:45 52.11612 -5.13847 23253 ft 348 kts 332°
2026-05-05 12:45 52.13771 -5.15584 22870 ft 346 kts 331°
2026-05-05 12:46 52.15911 -5.17324 22505 ft 343 kts 331°
2026-05-05 12:46 52.18037 -5.19067 22159 ft 340 kts 332°
2026-05-05 12:46 52.20136 -5.20794 21843 ft 336 kts 331°
2026-05-05 12:46 52.22220 -5.22509 21485 ft 334 kts 331°
2026-05-05 12:47 52.24282 -5.24207 21154 ft 331 kts 331°
2026-05-05 12:47 52.26335 -5.25899 20819 ft 329 kts 331°
2026-05-05 12:47 52.28370 -5.27577 20488 ft 327 kts 332°
2026-05-05 12:47 52.30399 -5.29251 20249 ft 328 kts 331°
2026-05-05 12:48 52.32510 -5.30999 20039 ft 354 kts 331°
2026-05-05 12:48 52.34761 -5.32863 19808 ft 369 kts 331°
2026-05-05 12:48 52.37065 -5.34769 19561 ft 371 kts 331°
2026-05-05 12:48 52.39359 -5.36668 19284 ft 367 kts 332°
2026-05-05 12:49 52.41625 -5.38546 18879 ft 364 kts 331°
2026-05-05 12:49 52.43872 -5.40408 18452 ft 360 kts 331°
2026-05-05 12:49 52.46097 -5.42254 17972 ft 358 kts 331°
2026-05-05 12:49 52.48281 -5.44069 17507 ft 355 kts 332°
2026-05-05 12:50 52.50499 -5.45913 17053 ft 351 kts 332°
2026-05-05 12:50 52.52666 -5.47717 16615 ft 348 kts 332°
2026-05-05 12:50 52.54816 -5.49508 16186 ft 345 kts 332°
2026-05-05 12:50 52.57015 -5.51062 15757 ft 343 kts 339°
2026-05-05 12:51 52.59289 -5.52217 15338 ft 341 kts 342°
2026-05-05 12:51 52.61563 -5.53280 14918 ft 338 kts 342°
2026-05-05 12:51 52.63817 -5.54350 14505 ft 336 kts 342°
2026-05-05 12:51 52.66050 -5.55455 14089 ft 334 kts 341°
2026-05-05 12:52 52.68228 -5.56562 13647 ft 332 kts 342°
2026-05-05 12:52 52.70428 -5.57691 13227 ft 329 kts 342°
2026-05-05 12:52 52.72587 -5.58807 12968 ft 322 kts 341°
2026-05-05 12:52 52.74742 -5.59927 12694 ft 320 kts 341°
2026-05-05 12:53 52.76861 -5.61030 12433 ft 319 kts 341°
2026-05-05 12:53 52.78983 -5.62136 12172 ft 320 kts 342°
2026-05-05 12:53 52.81081 -5.63230 11781 ft 319 kts 341°
2026-05-05 12:53 52.83189 -5.64330 11379 ft 316 kts 341°
2026-05-05 12:54 52.87360 -5.66509 10582 ft 312 kts 342°
2026-05-05 12:54 52.89409 -5.67580 10396 ft 304 kts 342°
2026-05-05 12:54 52.91396 -5.68621 10239 ft 294 kts 342°
2026-05-05 12:55 52.93314 -5.69625 10103 ft 285 kts 342°
2026-05-05 12:55 52.95182 -5.70606 9952 ft 277 kts 342°
2026-05-05 12:55 52.97018 -5.71570 9625 ft 276 kts 342°
2026-05-05 12:55 52.98840 -5.72528 9334 ft 273 kts 342°
2026-05-05 12:56 53.00644 -5.73477 9026 ft 272 kts 342°
2026-05-05 12:56 53.02440 -5.74423 8711 ft 270 kts 342°
2026-05-05 12:56 53.04225 -5.75364 8410 ft 268 kts 342°
2026-05-05 12:56 53.05994 -5.76297 8113 ft 267 kts 342°
2026-05-05 12:57 53.07759 -5.77229 7819 ft 265 kts 342°
2026-05-05 12:57 53.09509 -5.78154 7527 ft 264 kts 342°
2026-05-05 12:57 53.11263 -5.79081 7230 ft 263 kts 342°
2026-05-05 12:57 53.13003 -5.80002 6941 ft 261 kts 342°
2026-05-05 12:58 53.14708 -5.80907 6655 ft 260 kts 342°
2026-05-05 12:58 53.16448 -5.81829 6357 ft 259 kts 342°
2026-05-05 12:58 53.18136 -5.82725 6056 ft 257 kts 342°
2026-05-05 12:58 53.19831 -5.83625 5765 ft 255 kts 342°
2026-05-05 12:59 53.21525 -5.84525 5463 ft 249 kts 342°
2026-05-05 12:59 53.23144 -5.85386 5201 ft 238 kts 342°
2026-05-05 12:59 53.24683 -5.86205 5016 ft 227 kts 342°
2026-05-05 13:00 53.27569 -5.87743 4747 ft 212 kts 342°
2026-05-05 13:00 53.28976 -5.88494 4615 ft 206 kts 342°
2026-05-05 13:01 53.32845 -5.90560 4281 ft 189 kts 342°
2026-05-05 13:01 53.34093 -5.91228 4148 ft 188 kts 342°
2026-05-05 13:01 53.35336 -5.91893 4019 ft 187 kts 342°
2026-05-05 13:01 53.36577 -5.92557 3890 ft 187 kts 343°
2026-05-05 13:02 53.37812 -5.93219 3756 ft 186 kts 343°
2026-05-05 13:02 53.39044 -5.93881 3636 ft 186 kts 342°
2026-05-05 13:02 53.40088 -5.95061 3590 ft 184 kts 303°
2026-05-05 13:02 53.40415 -5.97136 3568 ft 188 kts 281°
2026-05-05 13:03 53.40626 -5.99315 3319 ft 190 kts 281°
2026-05-05 13:03 53.40782 -6.01502 3047 ft 188 kts 279°
2026-05-05 13:03 53.40901 -6.03659 2797 ft 184 kts 278°
2026-05-05 13:03 53.41010 -6.05760 2549 ft 176 kts 278°
2026-05-05 13:04 53.41112 -6.07739 2310 ft 165 kts 278°
2026-05-05 13:04 53.41209 -6.09605 2112 ft 153 kts 278°
2026-05-05 13:04 53.41302 -6.11374 1889 ft 152 kts 279°
2026-05-05 13:04 53.41396 -6.13140 1681 ft 152 kts 279°
2026-05-05 13:05 53.41487 -6.14890 1460 ft 149 kts 278°
2026-05-05 13:05 53.41573 -6.16611 1273 ft 148 kts 278°
2026-05-05 13:05 53.41669 -6.18353 1053 ft 151 kts 279°
2026-05-05 13:05 53.41766 -6.20105 857 ft 153 kts 278°
2026-05-05 13:06 53.41858 -6.21877 650 ft 152 kts 278°
2026-05-05 13:06 53.41944 -6.23635 431 ft 149 kts 281°
2026-05-05 13:06 53.42042 -6.25360 251 ft 149 kts 280°
2026-05-05 13:06 53.42134 -6.26970 210 ft 118 kts 275°
2026-05-05 13:07 53.42185 -6.27965 211 ft 46 kts 275°
2026-05-05 13:07 53.42246 -6.28251 211 ft 20 kts 308°
2026-05-05 13:07 53.42315 -6.28325 210 ft 10 kts 348°
2026-05-05 13:07 53.42366 -6.28283 212 ft 8 kts 58°
2026-05-05 13:08 53.42370 -6.28190 213 ft 8 kts 96°
2026-05-05 13:08 53.42364 -6.28081 210 ft 11 kts 95°
2026-05-05 13:08 53.42357 -6.27945 210 ft 13 kts 95°
2026-05-05 13:08 53.42348 -6.27784 212 ft 15 kts 95°
2026-05-05 13:09 53.42338 -6.27602 210 ft 16 kts 96°
2026-05-05 13:09 53.42327 -6.27405 210 ft 18 kts 95°
2026-05-05 13:09 53.42316 -6.27187 210 ft 20 kts 95°
2026-05-05 13:09 53.42303 -6.26957 210 ft 19 kts 95°
2026-05-05 13:10 53.42291 -6.26738 210 ft 18 kts 95°
2026-05-05 13:10 53.42280 -6.26531 210 ft 18 kts 95°
2026-05-05 13:10 53.42268 -6.26331 210 ft 17 kts 96°
2026-05-05 13:10 53.42284 -6.26143 213 ft 16 kts 64°
2026-05-05 13:11 53.42354 -6.26004 215 ft 15 kts 46°
2026-05-05 13:11 53.42429 -6.25875 210 ft 16 kts 45°
2026-05-05 13:11 53.42511 -6.25736 216 ft 18 kts 45°
2026-05-05 13:11 53.42604 -6.25581 211 ft 20 kts 46°
2026-05-05 13:12 53.42699 -6.25415 215 ft 20 kts 45°
2026-05-05 13:12 53.42777 -6.25283 210 ft 11 kts 45°
2026-05-05 13:12 53.42838 -6.25274 210 ft 9 kts 339°
2026-05-05 13:12 53.42893 -6.25314 213 ft 9 kts 336°
2026-05-05 13:13 53.42946 -6.25299 216 ft 7 kts 59°
2026-05-05 13:13 53.42962 -6.25220 210 ft 7 kts 82°
2026-05-05 13:13 53.42959 -6.25125 210 ft 8 kts 95°
2026-05-05 13:13 53.42972 -6.25081 211 ft 3 kts 21°
2026-05-05 13:14 53.42997 -6.25076 210 ft 3 kts
2026-05-05 13:14 53.43006 -6.25075 210 ft 1 kts
2026-05-05 13:14 53.43015 -6.25074 210 ft 0 kts